Voltar ao catálogo

STARLINK-5717

AtivoComunicaçõesVLEO
NORAD 55618·PAYLOAD·🇺🇸 United States

Lançado Feb 12, 2023 de Cape Canaveral Space Force Station

Loading…

Próximas Passagens (próximas 24 horas)

TLE

AtualizadoSource: CelesTrak SupGP

Época: Sep 15, 2026, 02:16 UTC

1 55618C 23020BB  26258.09493056 -.00017685  00000+0 -64062-3 0  2588
2 55618  43.0030   4.4366 0001523 262.1555 252.6649 15.27583440    11

Acompanhe STARLINK-5717 em tempo real com AllMySat

Download on the App Store